Surface/Precipitation History
12/07/2016 11:11  to  12/8/2016 11:11
Change End Date:
Date/Time
(MST)
Sf
Temp Chem Water Layer Surface Precipitation
Sfc Pvt Sub Frz Factor Pct Dpth DpthThk IcePct Cond Salin FI Type Intens Accum Rate
12/08/2016 11:10 Chemically Wet 9.1F - 19F 3F 90 50% 0.00 in - 0% 999 mhos 15000 - None None - -
12/08/2016 11:09 Chemically Wet 8.8F - 19F 3F 95 50% 0.00 in - 0% 999 mhos 15000 - None None - -
12/08/2016 10:59 Chemically Wet 8.2F - 19F 3F 90 50% 0.00 in - 0% 999 mhos 15000 - None None - -
12/08/2016 10:55 Chemically Wet 8.1F - 19F 3F 90 50% 0.00 in - 0% 999 mhos 15000 - None None - -
12/08/2016 10:49 Chemically Wet 7.9F - 19F 3F 90 50% 0.00 in - 0% 999 mhos 15000 - None None - -
12/08/2016 10:40 Chemically Wet 7.0F - 19F 3F 75 50% 0.00 in - 0% 999 mhos 15000 - None None - -
12/08/2016 10:39 Chemically Wet 6.8F - 19F 3F 75 50% 0.00 in - 0% 999 mhos 15000 - None None - -
12/08/2016 10:29 Chemically Wet 5.9F - 19F 3F 75 50% 0.00 in - 0% 1000 mhos 15000 - None None - -
12/08/2016 10:25 Chemically Wet 5.5F - 19F 3F 75 50% 0.00 in - 0% 1000 mhos 15000 - None None - -
12/08/2016 10:19 Chemically Wet 5.2F - 19F 3F 75 50% 0.00 in - 0% 855 mhos 15000 - None None - -
12/08/2016 10:10 Chemically Wet 4.3F - 19F 3F 70 50% 0.00 in - 0% 855 mhos 15000 - None None - -
12/08/2016 10:09 Chemically Wet 4.1F - 19F 3F 70 50% 0.00 in - 0% 855 mhos 15000 - Yes - - -
12/08/2016 09:59 Chemically Wet 3.2F - 19F 3F 70 50% - - 50% 855 mhos 15000 - None None - -
12/08/2016 09:55 Chemically Wet 3.0F - 19F 3F 70 50% - - 50% 855 mhos 15000 - None None - -
12/08/2016 09:49 Chemically Wet 2.5F - 19F 3F 70 50% - - 51% 855 mhos 15000 - None None - -
Date/Time
(MST)
Sf
Temp Chem Water Layer Surface Precipitation
Sfc Pvt Sub Frz Factor Pct Dpth DpthThk IcePct Cond Salin FI Type Intens Accum Rate
12/08/2016 09:40 Chemically Wet 1.6F - 19F 3F 65 50% - - 52% 855 mhos 15000 - Yes - - -
12/08/2016 09:38 Chemically Wet 1.4F - 19F 3F 65 50% - - 52% 855 mhos 15000 - Yes - - -
12/08/2016 09:28 Chemically Wet 0.1F - 19F 3F 65 50% - - 53% 748 mhos 15000 - Yes - - -
12/08/2016 09:25 Chemically Wet 0.0F - 19F 3F 65 50% - - 53% 748 mhos 15000 - Yes - - -
12/08/2016 09:18 Chemically Wet -0.2F - 19F 3F 65 50% - - 54% 748 mhos 15000 - Yes - - -
12/08/2016 09:10 Chemically Wet -0.4F - 19F 3F 65 50% - - 54% 748 mhos 15000 - Yes - - -
12/08/2016 09:08 Chemically Wet -0.6F - 19F 3F 65 50% - - 54% 748 mhos 15000 - Yes - - -
12/08/2016 08:58 Chemically Wet -1.1F - 19F 3F 60 50% - - 54% 748 mhos 15000 - Yes - - -
12/08/2016 08:55 Chemically Wet -0.9F - 19F 3F 65 50% - - 54% 748 mhos 15000 - Yes - - -
12/08/2016 08:48 Chemically Wet -1.8F - 19F 3F 65 50% - - 55% 748 mhos 15000 - Yes - - -
12/08/2016 08:40 Chemically Wet -1.8F - 19F 3F 65 50% - - 55% 748 mhos 15000 - Yes - - -
12/08/2016 08:38 Chemically Wet -2.0F - 19F 3F 65 50% - - 55% 748 mhos 15000 - Yes - - -
12/08/2016 08:28 Chemically Wet -2.0F - 19F 3F 65 50% - - 55% 663 mhos 15000 - Yes - - -
12/08/2016 08:25 Chemically Wet -2.0F - 19F 3F 65 50% - - 55% 747 mhos 15000 - Yes - - -
12/08/2016 08:18 Chemically Wet -2.6F - 19F 3F 65 50% - - 56% 664 mhos 15000 - Yes - - -
Date/Time
(MST)
Sf
Temp Chem Water Layer Surface Precipitation
Sfc Pvt Sub Frz Factor Pct Dpth DpthThk IcePct Cond Salin FI Type Intens Accum Rate
12/08/2016 08:10 Chemically Wet -3.3F - 19F 3F 60 50% - - 56% 664 mhos 15000 - None None - -
12/08/2016 08:08 Chemically Wet -3.3F - 19F 3F 60 50% - - 56% 664 mhos 15000 - None None - -
12/08/2016 07:58 Chemically Wet -3.6F - 19F 3F 60 50% - - 56% 664 mhos 15000 - None None - -
12/08/2016 07:55 Chemically Wet -3.6F - 19F 3F 60 50% - - 56% 664 mhos 15000 - None None - -
12/08/2016 07:48 Chemically Wet -4.2F - 19F 3F 60 50% - - 57% 597 mhos 15000 - Yes - - -
12/08/2016 07:40 Chemically Wet -4.0F - 19F 3F 60 50% - - 57% 597 mhos 15000 - None None - -
12/08/2016 07:38 Chemically Wet -4.4F - 19F 3F 60 50% - - 57% 597 mhos 15000 - Yes - - -
12/08/2016 07:28 Chemically Wet -4.5F - 19F 3F 55 50% - - 57% 597 mhos 15000 - Yes - - -
12/08/2016 07:25 Chemically Wet -4.7F - 19F 3F 55 50% - - 57% 597 mhos 15000 - Yes - - -
12/08/2016 07:18 Chemically Wet -4.9F - 19F 3F 55 50% - - 57% 597 mhos 15000 - Yes - - -
12/08/2016 07:10 Chemically Wet -4.9F - 20F 3F 55 50% - - 57% 542 mhos 15000 - Yes - - -
12/08/2016 07:08 Chemically Wet -4.9F - 19F 3F 55 50% - - 57% 597 mhos 15000 - Yes - - -
12/08/2016 06:58 Chemically Wet -4.4F - 20F 3F 55 50% - - 57% 542 mhos 15000 - None None - -
12/08/2016 06:55 Chemically Wet -4.4F - 19F 3F 60 50% - - 57% 542 mhos 15000 - Yes - - -
12/08/2016 06:48 Chemically Wet -4.2F - 20F 3F 60 50% - - 57% 542 mhos 15000 - None None - -
Date/Time
(MST)
Sf
Temp Chem Water Layer Surface Precipitation
Sfc Pvt Sub Frz Factor Pct Dpth DpthThk IcePct Cond Salin FI Type Intens Accum Rate
12/08/2016 06:40 Chemically Wet -4.2F - 20F 3F 60 50% - - 57% 542 mhos 15000 - None None - -
12/08/2016 06:38 Chemically Wet -4.0F - 19F 3F 60 50% - - 57% 542 mhos 15000 - None None - -
12/08/2016 06:27 Chemically Wet -3.5F - 20F 3F 60 50% - - 56% 497 mhos 15000 - Yes - - -
12/08/2016 06:25 Chemically Wet -3.3F - 20F 3F 60 50% - - 56% 497 mhos 15000 - Yes - - -
12/08/2016 06:17 Chemically Wet -3.1F - 20F 3F 60 50% - - 56% 497 mhos 15000 - None None - -
12/08/2016 06:10 Chemically Wet -2.7F - 20F 3F 65 50% - - 56% 459 mhos 15000 - Yes - - -
12/08/2016 06:07 Chemically Wet -2.9F - 20F 3F 65 50% - - 56% 425 mhos 15000 - Yes - - -
12/08/2016 05:57 Chemically Wet -2.9F - 20F 3F 65 50% - - 56% 397 mhos 15000 - Yes - - -
12/08/2016 05:55 Chemically Wet -2.9F - 20F 3F 65 50% - - 56% 397 mhos 15000 - Yes - - -
12/08/2016 05:47 Chemically Wet -2.9F - 20F 3F 65 50% - - 56% 350 mhos 15000 - Yes - - -
12/08/2016 05:40 Chemically Wet -3.5F - 20F 3F 50 50% - - 56% 313 mhos 15000 - Yes - - -
12/08/2016 05:37 Chemically Wet -3.3F - 20F 3F 50 50% - - 56% 313 mhos 15000 - None None - -
12/08/2016 05:27 Chemically Wet -3.8F - 20F 3F 50 50% - - 57% 283 mhos 15000 - None None - -
12/08/2016 05:25 Chemically Wet -3.8F - 20F 3F 50 50% - - 57% 283 mhos 15000 - None None - -
12/08/2016 05:17 Chemically Wet -3.8F - 20F 3F 50 50% - - 57% 258 mhos 15000 - None None - -
Date/Time
(MST)
Sf
Temp Chem Water Layer Surface Precipitation
Sfc Pvt Sub Frz Factor Pct Dpth DpthThk IcePct Cond Salin FI Type Intens Accum Rate
12/08/2016 05:10 Chemically Wet -4.2F - 20F 3F 45 50% - - 57% 248 mhos 15000 - Yes - - -
12/08/2016 05:07 Chemically Wet -4.2F - 20F 3F 45 50% - - 57% 238 mhos 15000 - None None - -
12/08/2016 04:57 Chemically Wet -4.4F - 20F 3F 45 50% - - 57% 228 mhos 15000 - Yes - - -
12/08/2016 04:55 Chemically Wet -4.4F - 20F 3F 45 50% - - 57% 220 mhos 15000 - Yes - - -
12/08/2016 04:47 Chemically Wet -4.4F - 20F 3F 45 50% - - 57% 212 mhos 15000 - Yes - - -
12/08/2016 04:40 Chemically Wet -4.2F - 20F 3F 50 50% - - 57% 198 mhos 15000 - Yes - - -
12/08/2016 04:37 Chemically Wet -4.4F - 20F 3F 50 50% - - 57% 198 mhos 15000 - Yes - - -
12/08/2016 04:27 Chemically Wet -4.7F - 20F 3F 40 50% - - 57% 185 mhos 15000 - None None - -
12/08/2016 04:25 Chemically Wet -5.1F - 20F 3F 40 50% - - 57% 174 mhos 15000 - None None - -
12/08/2016 04:17 Chemically Wet -5.4F - 20F 3F 35 50% - - 58% 165 mhos 15000 - None None - -
12/08/2016 04:10 Chemically Wet -5.6F - 20F 3F 30 50% - - 58% 156 mhos 15000 - Yes - - -
12/08/2016 04:07 Chemically Wet -6.0F - 20F 3F 25 50% - - 58% 152 mhos 15000 - Yes - - -
12/08/2016 03:57 Chemically Wet -6.5F - 20F 3F 20 50% - - 59% 138 mhos 15000 - None None - -
12/08/2016 03:55 Chemically Wet -6.7F - 20F 3F 20 50% - - 59% 135 mhos 15000 - Yes - - -
12/08/2016 03:47 Chemically Wet -7.4F - 20F 3F 10 50% - - 59% 129 mhos 15000 - None None - -
Date/Time
(MST)
Sf
Temp Chem Water Layer Surface Precipitation
Sfc Pvt Sub Frz Factor Pct Dpth DpthThk IcePct Cond Salin FI Type Intens Accum Rate
12/08/2016 03:40 Chemically Wet -7.8F - 20F 3F 5 50% - - 59% 121 mhos 15000 - None None - -
12/08/2016 03:37 Chemically Wet -8.1F - 20F 3F 5 50% - - 60% 119 mhos 15000 - None None - -
12/08/2016 03:27 Chemically Wet -9.2F - 20F 3F 5 50% - - 60% 112 mhos 15000 - None None - -
12/08/2016 03:25 Chemically Wet -9.2F - 20F 3F 5 50% - - 60% 112 mhos 15000 - None None - -
12/08/2016 03:17 Chemically Wet -9.8F - 20F 3F 5 50% - - 60% 109 mhos 15000 - Yes - - -
12/08/2016 03:10 Chemically Wet -11.0F - 20F 3F 5 50% - - 61% 97 mhos 15000 - None None - -
12/08/2016 03:06 Chemically Wet -11.4F - 20F 3F 5 50% - - 61% 95 mhos 15000 - None None - -
12/08/2016 02:56 Error -12.1F - 20F - - - - - - 92 mhos 15000 - None None - -
12/08/2016 02:55 Error -11.7F - 20F - - - - - - 92 mhos 15000 - None None - -
12/08/2016 02:46 Error -12.1F - 20F - - - - - - 92 mhos 15000 - None None - -
12/08/2016 02:40 Error -11.7F - 20F - - - - - - 92 mhos 15000 - None None - -
12/08/2016 02:36 Error -11.6F - 20F - - - - - - 92 mhos 15000 - None None - -
12/08/2016 02:26 Error -11.6F - 20F - - - - - - 90 mhos 15000 - None None - -
12/08/2016 02:25 Error -11.6F - 20F - - - - - - 90 mhos 15000 - None None - -
12/08/2016 02:16 Chemically Wet -11.4F - 20F 3F 5 50% - - 61% 99 mhos 15000 - None None - -
Date/Time
(MST)
Sf
Temp Chem Water Layer Surface Precipitation
Sfc Pvt Sub Frz Factor Pct Dpth DpthThk IcePct Cond Salin FI Type Intens Accum Rate
12/08/2016 02:10 Chemically Wet -11.7F - 21F 3F 5 50% - - 62% 97 mhos 15000 - None None - -
12/08/2016 02:06 Chemically Wet -11.6F - 21F 3F 5 50% - - 61% 97 mhos 15000 - None None - -
12/08/2016 01:56 Chemically Wet -11.2F - 21F 3F 5 50% - - 61% 97 mhos 15000 - None None - -
12/08/2016 01:55 Chemically Wet -11.4F - 21F 3F 5 50% - - 61% 97 mhos 15000 - None None - -
12/08/2016 01:46 Chemically Wet -11.2F - 21F 3F 5 50% - - 61% 97 mhos 15000 - None None - -
12/08/2016 01:40 Chemically Wet -11.2F - 21F 3F 5 50% - - 61% 97 mhos 15000 - None None - -
12/08/2016 01:36 Chemically Wet -11.0F - 21F 3F 5 50% - - 61% 97 mhos 15000 - None None - -
12/08/2016 01:26 Chemically Wet -11.0F - 21F 3F 5 50% - - 61% 90 mhos 15000 - None None - -
12/08/2016 01:25 Chemically Wet -10.8F - 21F 3F 5 50% - - 61% 92 mhos 15000 - None None - -
12/08/2016 01:16 Chemically Wet -10.7F - 21F 3F 5 50% - - 61% 92 mhos 15000 - None None - -
12/08/2016 01:10 Chemically Wet -10.5F - 21F 3F 5 50% - - 61% 92 mhos 15000 - None None - -
12/08/2016 01:06 Chemically Wet -10.1F - 21F 3F 5 50% - - 61% 92 mhos 15000 - None None - -
12/08/2016 00:56 Chemically Wet -10.1F - 21F 3F 5 50% - - 61% 92 mhos 15000 - None None - -
12/08/2016 00:55 Chemically Wet -10.3F - 21F 3F 5 50% - - 61% 93 mhos 15000 - None None - -
12/08/2016 00:46 Chemically Wet -9.9F - 21F 3F 5 50% - - 61% 93 mhos 15000 - None None - -
Date/Time
(MST)
Sf
Temp Chem Water Layer Surface Precipitation
Sfc Pvt Sub Frz Factor Pct Dpth DpthThk IcePct Cond Salin FI Type Intens Accum Rate
12/08/2016 00:40 Chemically Wet -9.8F - 21F 3F 5 50% - - 60% 93 mhos 15000 - None None - -
12/08/2016 00:36 Chemically Wet -9.6F - 21F 3F 5 50% - - 60% 93 mhos 15000 - None None - -
12/08/2016 00:26 Chemically Wet -9.4F - 21F 3F 5 50% - - 60% 95 mhos 15000 - None None - -
12/08/2016 00:25 Chemically Wet -9.2F - 21F 3F 5 50% - - 60% 95 mhos 15000 - None None - -
12/08/2016 00:16 Chemically Wet -8.9F - 21F 3F 5 50% - - 60% 97 mhos 15000 - None None - -
12/08/2016 00:10 Chemically Wet -8.7F - 21F 3F 5 50% - - 60% 97 mhos 15000 - None None - -
12/08/2016 00:06 Chemically Wet -8.5F - 21F 3F 5 50% - - 60% 98 mhos 15000 - None None - -
12/07/2016 23:55 Chemically Wet -8.1F - 21F 3F 5 50% - - 60% 98 mhos 15000 - None None - -
12/07/2016 23:55 Chemically Wet -8.1F - 21F 3F 5 50% - - 60% 98 mhos 15000 - None None - -
12/07/2016 23:45 Chemically Wet -7.6F - 21F 3F 5 50% - - 59% 100 mhos 15000 - None None - -
12/07/2016 23:40 Chemically Wet -7.4F - 21F 3F 5 50% - - 59% 102 mhos 15000 - None None - -
12/07/2016 23:35 Chemically Wet -7.4F - 21F 3F 5 50% - - 59% 102 mhos 15000 - None None - -
12/07/2016 23:25 Chemically Wet -7.4F - 21F 3F 5 50% - - 59% 102 mhos 15000 - None None - -
12/07/2016 23:25 Chemically Wet -7.4F - 21F 3F 5 50% - - 59% 100 mhos 15000 - None None - -
12/07/2016 23:15 Chemically Wet -7.4F - 21F 3F 5 50% - - 59% 102 mhos 15000 - None None - -
Date/Time
(MST)
Sf
Temp Chem Water Layer Surface Precipitation
Sfc Pvt Sub Frz Factor Pct Dpth DpthThk IcePct Cond Salin FI Type Intens Accum Rate
12/07/2016 23:10 Chemically Wet -7.4F - 21F 3F 5 50% - - 59% 102 mhos 15000 - None None - -
12/07/2016 23:05 Chemically Wet -7.6F - 21F 3F 5 50% - - 59% 100 mhos 15000 - None None - -
12/07/2016 22:55 Chemically Wet -8.0F - 22F 3F 5 50% - - 59% 98 mhos 15000 - None None - -
12/07/2016 22:55 Chemically Wet -7.8F - 22F 3F 5 50% - - 59% 100 mhos 15000 - None None - -
12/07/2016 22:45 Chemically Wet -8.3F - 22F 3F 5 50% - - 60% 98 mhos 15000 - None None - -
12/07/2016 22:40 Chemically Wet -8.1F - 22F 3F 5 50% - - 60% 98 mhos 15000 - None None - -
12/07/2016 22:35 Chemically Wet -8.3F - 22F 3F 5 50% - - 60% 98 mhos 15000 - None None - -
12/07/2016 22:25 Chemically Wet -8.1F - 22F 3F 5 50% - - 60% 100 mhos 15000 - None None - -
12/07/2016 22:25 Chemically Wet -8.0F - 22F 3F 5 50% - - 59% 98 mhos 15000 - None None - -
12/07/2016 22:15 Chemically Wet -7.8F - 22F 3F 5 50% - - 59% 100 mhos 15000 - None None - -
12/07/2016 22:10 Chemically Wet -7.8F - 22F 3F 5 50% - - 59% 102 mhos 15000 - None None - -
12/07/2016 22:05 Chemically Wet -7.8F - 22F 3F 5 50% - - 59% 102 mhos 15000 - None None - -
12/07/2016 21:55 Chemically Wet -7.6F - 22F 3F 5 50% - - 59% 108 mhos 15000 - None None - -
12/07/2016 21:55 Chemically Wet -7.6F - 22F 3F 5 50% - - 59% 108 mhos 15000 - None None - -
12/07/2016 21:45 Chemically Wet -7.4F - 22F 3F 5 50% - - 59% 108 mhos 15000 - None None - -
Date/Time
(MST)
Sf
Temp Chem Water Layer Surface Precipitation
Sfc Pvt Sub Frz Factor Pct Dpth DpthThk IcePct Cond Salin FI Type Intens Accum Rate
12/07/2016 21:40 Chemically Wet -7.2F - 22F 3F 5 50% - - 59% 110 mhos 15000 - None None - -
12/07/2016 21:35 Chemically Wet -7.1F - 22F 3F 5 50% - - 59% 107 mhos 15000 - None None - -
12/07/2016 21:25 Chemically Wet -6.7F - 22F 3F 5 50% - - 59% 114 mhos 15000 - None None - -
12/07/2016 21:25 Chemically Wet -6.7F - 22F 3F 5 50% - - 59% 114 mhos 15000 - None None - -
12/07/2016 21:15 Chemically Wet -6.5F - 22F 3F 5 50% - - 59% 117 mhos 15000 - None None - -
12/07/2016 21:10 Chemically Wet -6.3F - 22F 3F 5 50% - - 58% 112 mhos 15000 - None None - -
12/07/2016 21:05 Chemically Wet -6.2F - 22F 3F 5 50% - - 58% 114 mhos 15000 - None None - -
12/07/2016 20:55 Chemically Wet -6.0F - 22F 3F 5 50% - - 58% 116 mhos 15000 - None None - -
12/07/2016 20:55 Chemically Wet -6.0F - 22F 3F 5 50% - - 58% 116 mhos 15000 - None None - -
12/07/2016 20:44 Chemically Wet -5.6F - 22F 3F 5 50% - - 58% 119 mhos 15000 - None None - -
12/07/2016 20:40 Chemically Wet -5.6F - 22F 3F 5 50% - - 58% 119 mhos 15000 - None None - -
12/07/2016 20:34 Chemically Wet -5.3F - 22F 3F 5 50% - - 58% 121 mhos 15000 - None None - -
12/07/2016 20:25 Chemically Wet -5.1F - 22F 3F 5 50% - - 58% 127 mhos 15000 - None None - -
12/07/2016 20:24 Chemically Wet -5.1F - 22F 3F 5 50% - - 57% 127 mhos 15000 - None None - -
12/07/2016 20:14 Chemically Wet -4.9F - 22F 3F 5 50% - - 57% 124 mhos 15000 - None None - -
Date/Time
(MST)
Sf
Temp Chem Water Layer Surface Precipitation
Sfc Pvt Sub Frz Factor Pct Dpth DpthThk IcePct Cond Salin FI Type Intens Accum Rate
12/07/2016 20:10 Chemically Wet -4.5F - 22F 3F 5 50% - - 57% 127 mhos 15000 - None None - -
12/07/2016 20:04 Chemically Wet -4.4F - 22F 3F 5 50% - - 57% 129 mhos 15000 - None None - -
12/07/2016 19:55 Chemically Wet -4.2F - 22F 3F 5 50% - - 57% 135 mhos 15000 - None None - -
12/07/2016 19:54 Chemically Wet -4.2F - 22F 3F 5 50% - - 57% 135 mhos 15000 - None None - -
12/07/2016 19:44 Chemically Wet -4.0F - 22F 3F 5 50% - - 57% 138 mhos 15000 - None None - -
12/07/2016 19:40 Chemically Wet -3.6F - 22F 3F 5 50% - - 56% 142 mhos 15000 - None None - -
12/07/2016 19:34 Chemically Wet -3.6F - 22F 3F 5 50% - - 56% 142 mhos 15000 - None None - -
12/07/2016 19:25 Chemically Wet -3.3F - 22F 3F 5 50% - - 56% 145 mhos 15000 - None None - -
12/07/2016 19:24 Chemically Wet -3.3F - 22F 3F 5 50% - - 56% 145 mhos 15000 - None None - -
12/07/2016 19:14 Chemically Wet -2.9F - 22F 3F 5 50% - - 56% 149 mhos 15000 - None None - -
12/07/2016 19:10 Chemically Wet -2.9F - 22F 3F 5 50% - - 56% 149 mhos 15000 - None None - -
12/07/2016 19:04 Chemically Wet -2.7F - 22F 3F 5 50% - - 56% 153 mhos 15000 - None None - -
12/07/2016 18:55 Chemically Wet -2.6F - 22F 3F 10 50% - - 56% 153 mhos 15000 - None None - -
12/07/2016 18:54 Chemically Wet -2.4F - 22F 3F 15 50% - - 56% 156 mhos 15000 - None None - -
12/07/2016 18:44 Chemically Wet -2.0F - 22F 3F 15 50% - - 55% 161 mhos 15000 - None None - -
Date/Time
(MST)
Sf
Temp Chem Water Layer Surface Precipitation
Sfc Pvt Sub Frz Factor Pct Dpth DpthThk IcePct Cond Salin FI Type Intens Accum Rate
12/07/2016 18:40 Chemically Wet -2.0F - 22F 3F 15 50% - - 55% 161 mhos 15000 - None None - -
12/07/2016 18:34 Chemically Wet -1.7F - 22F 3F 10 50% - - 55% 165 mhos 15000 - None None - -
12/07/2016 18:25 Chemically Wet -1.1F - 22F 3F 15 50% - - 55% 170 mhos 15000 - None None - -
12/07/2016 18:24 Chemically Wet -1.1F - 22F 3F 15 50% - - 55% 170 mhos 15000 - None None - -
12/07/2016 18:14 Chemically Wet -0.6F - 22F 3F 10 50% - - 54% 175 mhos 15000 - None None - -
12/07/2016 18:10 Chemically Wet -0.4F - 22F 3F 5 50% - - 54% 180 mhos 15000 - None None - -
12/07/2016 18:04 Chemically Wet 0.0F - 22F 3F 5 50% - - 54% 186 mhos 15000 - None None - -
12/07/2016 17:55 Chemically Wet 0.1F - 22F 3F 10 50% - - 53% 186 mhos 15000 - None None - -
12/07/2016 17:54 Chemically Wet 0.5F - 22F 3F 10 50% - - 53% 192 mhos 15000 - None None - -
12/07/2016 17:44 Chemically Wet 1.0F - 22F 3F 5 50% - - 52% 199 mhos 15000 - None None - -
12/07/2016 17:40 Chemically Wet 1.2F - 22F 3F 10 50% - - 52% 199 mhos 15000 - None None - -
12/07/2016 17:33 Chemically Wet 1.6F - 22F 3F 10 50% - - 52% 205 mhos 15000 - None None - -
12/07/2016 17:25 Chemically Wet 1.8F - 22F 3F 20 50% - - 52% 213 mhos 15000 - None None - -
12/07/2016 17:23 Chemically Wet 1.9F - 22F 3F 15 50% - - 52% 213 mhos 15000 - None None - -
12/07/2016 17:13 Chemically Wet 2.7F - 22F 3F 15 50% - - 51% 221 mhos 15000 - None None - -
Date/Time
(MST)
Sf
Temp Chem Water Layer Surface Precipitation
Sfc Pvt Sub Frz Factor Pct Dpth DpthThk IcePct Cond Salin FI Type Intens Accum Rate
12/07/2016 17:10 Chemically Wet 2.7F - 22F 3F 15 50% - - 51% 229 mhos 15000 - None None - -
12/07/2016 17:03 Chemically Wet 3.2F - 22F 3F 15 50% - - 50% 229 mhos 15000 - None None - -
12/07/2016 16:55 Chemically Wet 4.3F - 22F 3F 5 50% 0.70 in - 0% 238 mhos 15000 - None None - -
12/07/2016 16:53 Chemically Wet 4.5F - 22F 3F 5 50% 0.70 in - 0% 238 mhos 15000 - None None - -
12/07/2016 16:43 Chemically Wet 5.4F - 22F 3F 20 50% 0.00 in - 0% 259 mhos 15000 - None None - -
12/07/2016 16:40 Chemically Wet 5.7F - 21F 3F 5 50% 0.70 in - 0% 259 mhos 15000 - None None - -
12/07/2016 16:33 Chemically Wet 6.6F - 21F 3F 5 50% 0.70 in - 0% 271 mhos 15000 - None None - -
12/07/2016 16:25 Chemically Wet 7.9F - 21F 3F 5 50% 0.70 in - 0% 300 mhos 15000 - None None - -
12/07/2016 16:23 Chemically Wet 7.7F - 21F 3F 5 50% 0.70 in - 0% 300 mhos 15000 - None None - -
12/07/2016 16:13 Chemically Wet 9.1F - 21F 3F 5 50% 0.70 in - 0% 335 mhos 15000 - None None - -
12/07/2016 16:10 Chemically Wet 9.5F - 21F 3F 5 50% 0.70 in - 0% 356 mhos 15000 - None None - -
12/07/2016 16:03 Chemically Wet 10.8F - 21F 3F 5 50% 0.70 in - 0% 356 mhos 15000 - None None - -
12/07/2016 15:55 Chemically Wet 10.6F - 21F 3F 5 50% 0.70 in - 0% 380 mhos 15000 - None None - -
12/07/2016 15:53 Chemically Wet 10.4F - 21F 3F 5 50% 0.70 in - 0% 380 mhos 15000 - None None - -
12/07/2016 15:43 Chemically Wet 11.8F - 21F 3F 5 50% 0.70 in - 0% 407 mhos 15000 - None None - -
Date/Time
(MST)
Sf
Temp Chem Water Layer Surface Precipitation
Sfc Pvt Sub Frz Factor Pct Dpth DpthThk IcePct Cond Salin FI Type Intens Accum Rate
12/07/2016 15:40 Chemically Wet 12.2F - 21F 3F 5 50% 0.70 in - 0% 439 mhos 15000 - None None - -
12/07/2016 15:33 Chemically Wet 12.6F - 21F 3F 5 50% 0.70 in - 0% 439 mhos 15000 - None None - -
12/07/2016 15:25 Chemically Wet 13.3F - 21F 3F 5 50% 0.70 in - 0% 476 mhos 15000 - None None - -
12/07/2016 15:23 Chemically Wet 13.3F - 21F 3F 5 50% 0.70 in - 0% 476 mhos 15000 - None None - -
12/07/2016 15:13 Chemically Wet 15.1F - 21F 3F 5 50% 0.70 in - 0% 518 mhos 15000 - None None - -
12/07/2016 15:10 Chemically Wet 14.0F - 21F 3F 5 50% 0.70 in - 0% 518 mhos 15000 - None None - -
12/07/2016 15:03 Chemically Wet 16.2F - 21F 3F 5 50% 0.70 in - 0% 571 mhos 15000 - None None - -
12/07/2016 14:55 Chemically Wet 17.1F - 21F 3F 5 50% 0.70 in - 0% 634 mhos 15000 - None None - -
12/07/2016 14:53 Chemically Wet 17.6F - 21F 3F 5 50% 0.70 in - 0% 634 mhos 15000 - None None - -
12/07/2016 14:43 Chemically Wet 18.0F - 21F 3F 5 50% 0.70 in - 0% 714 mhos 15000 - None None - -
12/07/2016 14:40 Chemically Wet 18.1F - 21F 3F 5 50% 0.70 in - 0% 714 mhos 15000 - None None - -
12/07/2016 14:33 Chemically Wet 20.3F - 21F 3F 5 50% 0.70 in - 0% 817 mhos 15000 - None None - -
12/07/2016 14:25 Chemically Wet 21.4F - 21F 3F 5 50% 0.70 in - 0% 955 mhos 15000 - None None - -
12/07/2016 14:23 Chemically Wet 21.4F - 21F 3F 5 50% 0.70 in - 0% 955 mhos 15000 - None None - -
12/07/2016 14:12 Chemically Wet 18.1F - 21F 3F 5 50% 0.70 in - 0% 955 mhos 15000 - None None - -
Date/Time
(MST)
Sf
Temp Chem Water Layer Surface Precipitation
Sfc Pvt Sub Frz Factor Pct Dpth DpthThk IcePct Cond Salin FI Type Intens Accum Rate
12/07/2016 14:10 Chemically Wet 17.8F - 21F 3F 5 50% 0.70 in - 0% 955 mhos 15000 - None None - -
12/07/2016 14:02 Chemically Wet 17.1F - 21F 3F 5 50% 0.70 in - 0% 955 mhos 15000 - None None - -
12/07/2016 13:55 Chemically Wet 17.6F - 21F 3F 5 50% 0.70 in - 0% 955 mhos 15000 - None None - -
12/07/2016 13:52 Chemically Wet 17.8F - 21F 3F 5 50% 0.70 in - 0% 1143 mhos 15000 - None None - -
12/07/2016 13:42 Chemically Wet 19.8F - 21F 3F 5 50% 0.70 in - 0% 1143 mhos 15000 - None None - -
12/07/2016 13:40 Chemically Wet 19.8F - 21F 3F 5 50% 0.70 in - 0% 1143 mhos 15000 - None None - -
12/07/2016 13:32 Chemically Wet 20.3F - 20F 3F 5 50% 0.70 in - 0% 1143 mhos 15000 - None None - -
12/07/2016 13:25 Chemically Wet 20.7F - 20F 3F 5 50% 0.70 in - 0% 1432 mhos 15000 - None None - -
12/07/2016 13:22 Chemically Wet 20.5F - 21F 3F 5 50% 0.70 in - 0% 1432 mhos 15000 - None None - -
12/07/2016 13:12 Chemically Wet 19.9F - 21F 3F 5 50% 0.70 in - 0% 1432 mhos 15000 - None None - -
12/07/2016 13:10 Chemically Wet 19.6F - 21F 3F 5 50% 0.70 in - 0% 1432 mhos 15000 - None None - -
12/07/2016 13:02 Chemically Wet 19.2F - 20F 3F 5 50% 0.70 in - 0% 1432 mhos 15000 - None None - -
12/07/2016 12:55 Chemically Wet 19.2F - 20F 3F 5 50% 0.70 in - 0% 1432 mhos 15000 - None None - -
12/07/2016 12:52 Chemically Wet 19.2F - 20F 3F 5 50% 0.70 in - 0% 1432 mhos 15000 - None None - -
12/07/2016 12:42 Chemically Wet 18.5F - 20F 3F 5 50% 0.70 in - 0% 1432 mhos 15000 - None None - -
Date/Time
(MST)
Sf
Temp Chem Water Layer Surface Precipitation
Sfc Pvt Sub Frz Factor Pct Dpth DpthThk IcePct Cond Salin FI Type Intens Accum Rate
12/07/2016 12:40 Chemically Wet 18.5F - 20F 3F 5 50% 0.70 in - 0% 1432 mhos 15000 - None None - -
12/07/2016 12:32 Chemically Wet 18.0F - 21F 3F 5 50% 0.70 in - 0% 1432 mhos 15000 - None None - -
12/07/2016 12:25 Chemically Wet 17.2F - 20F 3F 5 50% 0.70 in - 0% 1432 mhos 15000 - None None - -
12/07/2016 12:22 Chemically Wet 16.9F - 21F 3F 5 50% 0.70 in - 0% 1432 mhos 15000 - None None - -
12/07/2016 12:12 Chemically Wet 16.5F - 20F 3F 5 50% 0.70 in - 0% 1432 mhos 15000 - None None - -
12/07/2016 12:10 Chemically Wet 16.2F - 20F 3F 5 50% 0.70 in - 0% 1432 mhos 15000 - None None - -
12/07/2016 12:02 Chemically Wet 15.3F - 20F 3F 5 50% 0.00 in - 0% 1502 mhos 15000 - None None - -
12/07/2016 11:55 Chemically Wet 15.1F - 21F 3F 5 50% 0.00 in - 0% 1502 mhos 15000 - None None - -
12/07/2016 11:52 Chemically Wet 14.7F - 21F 3F 5 50% 0.70 in - 0% 1432 mhos 15000 - None None - -
12/07/2016 11:42 Chemically Wet 13.6F - 21F 3F 5 50% 0.70 in - 0% 1432 mhos 15000 - None None - -
12/07/2016 11:40 Chemically Wet 13.5F - 21F 3F 5 50% 0.70 in - 0% 1432 mhos 15000 - None None - -
12/07/2016 11:32 Chemically Wet 12.7F - 21F 3F 5 50% 0.70 in - 0% 1432 mhos 15000 - None None - -
12/07/2016 11:25 Chemically Wet 11.5F - 21F 3F 5 50% 0.70 in - 0% 1432 mhos 15000 - None None - -
12/07/2016 11:22 Chemically Wet 11.1F - 21F 3F 5 50% 0.70 in - 0% 1432 mhos 15000 - None None - -
12/07/2016 11:12 Chemically Wet 9.7F - 21F 3F 5 50% 0.00 in - 0% 1199 mhos 15000 - None None - -
Change End Date:

Copyright © 1998-2015 Vaisala, Inc.
All Rights Reserved
Send comments about the data to:
SCAN Web ® is a registered trademark of Vaisala, Inc.
SCAN Web Version 6.0